Погода в Эски Яккабаг

Узбекистан     38°55′35″N   66°50′16″E
темп.,
°C
ветер,
м/с
пор.,
м/с
влажн.,
%
обл.,
%
осадки,
мм/ч
давл.,
гПа
погр.,
м
3 марта, ср
ср323:00+12ююв3441100 0.0 102385
02:00+10вюв586696 0.1 1023230
05:00+9ююв356798 0.2 1023191
08:00+8вюв237373 0.1 1023127
11:00+12з125150 0.1 10221045
14:00+15зюз354125 0.0 10201721
17:00+15з343856 0.1 10191810
20:00+12с114578 0.0 102031
4 марта, чт
чт423:00+10вюв125743 0.0 102024
02:00+9всв12550 0.0 101922
05:00+8всв23512 0.0 101832
08:00+10св234671 0.0 101852
11:00+15ссз223786 0.1 1017561
14:00+18з473490 0.8 10161717
17:00+18з593372 1.0 10162439
20:00+12ю126865 2.1 102147
5 марта, пт
пт523:00+10юз456565 2.9 1024268
02:00+8з6779100 0.9 1027576
05:00+7вюв3581100 3.2 1028421
08:00+7с227970 0.1 1028123
11:00+10зсз216235 0.1 1027704
14:00+14сз22500 0.0 1023901
17:00+14ссз22470 0.0 1020824
20:00+11всв225625 0.0 101928
6 марта, сб
сб623:00+11всв344347 0.0 101669
02:00+12в2335100 0.0 101341
05:00+12вюв3434100 0.0 101044
08:00+12з4638100 0.0 1009113
11:00+7ссв5687100 6.8 1011343
14:00+14с245799 0.3 1011227
17:00+11юз131773100 0.5 10131088
20:00+7юз121675100 0.4 1016884
7 марта, вс
вс723:00+6юз121679100 0.4 1019735
02:00+5зюз81287100 0.0 1019797
05:00+4зюз6988100 0.2 1020640
08:00+4з4785100 0.4 1021633
11:00+6з3476100 0.4 1021588
14:00+6сз2274100 0.0 1019594
17:00+8всв336983 0.0 1017445
20:00+6всв22750 0.0 101739